Regional Weather Roundup
Issued by NWS

Home | Current Version | Previous Version | Text Only | Print | Product List | Glossary On
Versions: 1 2 3 4 5 6 7 8 9 10 11 12 13 14 15 16 17 18 19 20 21 22 23 24 25 26 27 28 29 30 31 32 33 34 35 36 37 38 39 40 41 42 43 44 45 46 47 48 49 50
000
ASUS45 KBOU 261607
RWRCO

WEATHER ROUNDUP FOR COLORADO
NATIONAL WEATHER SERVICE DENVER/BOULDER CO
1000 AM MDT SUN APR 26 2015

NOTE: "FAIR" INDICATES FEW OR NO CLOUDS BELOW 12000 FEET WITH NO
SIGNIFICANT WEATHER AND/OR OBSTRUCTIONS TO VISIBILITY.

COZ001>005-013-030-031-261700-
...NORTHWEST COLORADO...

CITY           SKY/WX    TMP DP  RH WIND       PRES   REMARKS
CRAIG          PTSUNNY   50  37  61 CALM      29.77F
HAYDEN         PTSUNNY   46  36  66 SE8       29.77S
MEEKER         PTSUNNY   45  38  76 SW6       29.78R
MOUNT WERNER   NOT AVBL
STEAMBOAT SPGS PTSUNNY   43  37  77 CALM      29.78S
WALDEN         CLOUDY    36  34  93 CALM      29.84R
$$

COZ006>008-011-261700-
...WEST CENTRAL VALLEYS...

CITY           SKY/WX    TMP DP  RH WIND       PRES   REMARKS
GRAND JUNCTION LGT RAIN  43  40  89 NE9       29.79R
MONTROSE       LGT RAIN  42  41  96 N10       29.79S
EAGLE          MOSUNNY   43  37  81 CALM      29.81F
RIFLE          CLOUDY    47  40  76 CALM      29.76S
DELTA          CLOUDY    46  42  87 MISG      29.79R
NUCLA          CLOUDY    43  37  81 E3        29.84R
$$

COZ017>023-064>068-261700-
...SOUTHWEST COLORADO...

CITY           SKY/WX    TMP DP  RH WIND       PRES   REMARKS
DURANGO        LGT RAIN  39  36  89 CALM      29.78S FOG
CORTEZ         CLOUDY    43  38  82 CALM      29.78S
PAGOSA SPRINGS DRIZZLE   38  37  93 CALM      29.80S
TELLURIDE      CLOUDY    36  35  96 W7        29.82S FOG
WOLF CREEK PAS NOT AVBL
$$

COZ009-010-012-014-032>034-037-058>063-261700-
...CENTRAL COLORADO...

CITY           SKY/WX    TMP DP  RH WIND       PRES   REMARKS
ASPEN          PTSUNNY   40  35  83 N8        29.77F
BUENA VISTA    LGT RAIN  39  35  86 S6        29.82F
COPPER MTN     CLOUDY    34  25  69 SE7       29.91R WCI  28
BERTHOUD PASS  SNOW      23  14  68 MISG      29.94F VSB<1/4
COTTONWOOD PAS SNOW      36  32  87 E5        29.86S VSB 1/4
GUNNISON       PTSUNNY   45  28  53 N8        29.79F
KREMMLING      CLOUDY    41  34  75 NW3       29.83S
LEADVILLE      LGT SNOW  31  30  96 S7        29.84S FOG     WCI  24
MONARCH PASS   FOG       27  27 100 E10       29.98F VSB 1/2 WCI  17
SALIDA         CLOUDY    43  41  93 N6        29.88S
SUNLIGHT       PTSUNNY   34  32  93 CALM      29.89R
WILKERSON PASS HVY SNOW  30  28  93 E6        29.92S VSB<1/4 WCI  24
$$

COZ069>075-261700-
...SAN LUIS VALLEY/SANGRE DE CRISTO MOUNTAINS...

CITY           SKY/WX    TMP DP  RH WIND       PRES   REMARKS
ALAMOSA        LGT RAIN  45  32  60 S10       29.78F
LA VETA PASS   CLOUDY    34  32  93 NE15G22   29.86F FOG     WCI  24
SAGUACHE       CLOUDY    45  30  57 S7        29.80F
$$

COZ035-036-038>040-261700-
...NORTHERN COLORADO FRONT RANGE...

CITY           SKY/WX    TMP DP  RH WIND       PRES   REMARKS
DENVER INTL AP LGT RAIN  42  32  67 E21       29.86R
DMNS CITY PARK   N/A     43  42  95 NE6       29.86S
AURORA         LGT RAIN  42  41  99 E16G24    29.86S FOG
FRONT RANGE AP LGT RAIN  43  41  93 NE16      29.87S
ERIE MUNI ARPT RAIN      44  42  93 NE3       29.87S
BOULDER MUN AP LGT RAIN  43  43 100 NE7       29.87R
CENTENNIAL     CLOUDY    42  41  96 NE12      29.85S FOG
BROOMFIELD     RAIN     N/A N/A N/A NE3       29.88R
FORT COLLINS   CLOUDY    45  41  87 E8        29.90R
LONGMONT       RAIN      47  43  87 CALM      29.89S
$$

COZ041-046-047-076>085-087-088-261700-
...PIKES PEAK/PALMER DIVIDE AND SOUTHERN FOOTHILLS...

CITY           SKY/WX    TMP DP  RH WIND       PRES   REMARKS
COLO. SPRINGS  CLOUDY    43  41  93 E21       29.84R
A. F. ACADEMY  RAIN      39  39  99 NW9       29.84S FOG
ELLICOTT       CLOUDY   N/A N/A N/A E17       29.83S FOG
FALCON         FOG       40  40 100 E16G22    29.86S VSB 1/4
FORT CARSON    NOT AVBL
LIMON          CLOUDY    42  41  96 E16       29.86S
MONUMENT HILL  CLOUDY    39  37  93 E10       29.84F FOG
TRINIDAD       PTSUNNY   51  36  56 E3        29.79R
$$

COZ042>045-048>051-090-091-261700-
...NORTHEAST COLORADO...

CITY           SKY/WX    TMP DP  RH WIND       PRES   REMARKS
GREELEY ARPT   CLOUDY    43  37  81 E16G24    29.88S
AKRON          LGT RAIN  41  41 100 E12       29.90S FOG
BURLINGTON     CLOUDY    43  41  93 E16       29.89R FOG
WRAY           CLOUDY   N/A N/A N/A E14G21    29.92R FOG
STERLING       RAIN      43  43 100 SE7       29.92R
HOLYOKE        CLOUDY    43  41  93 E15       29.94R FOG
FORT MORGAN    RAIN      40  39  94 E8        29.91S
$$

COZ086-089-092>099-261700-
...SOUTHEAST COLORADO...

CITY           SKY/WX    TMP DP  RH WIND       PRES   REMARKS
PUEBLO         LGT RAIN  46  45  96 E24       29.79S FOG
LA JUNTA       CLOUDY    47  45  93 E24G30    29.80S FOG
LAMAR          CLOUDY    47  45  93 E20G26    29.82R FOG
SPRINGFIELD      N/A     46  46 100 E18       29.80R
$$


USA.gov is the U.S. government's official web portal to all federal, state and local government web resources and services.